Content
SEND FEEDBACK

Daily
Averages
Monthly
Summary
Austria

LINZ, AUSTRIA


Home > Europe > Austria
Elevation: 970 feet     Latitude: 48 14N     Longitude: 014 11E

WEATHER
 
SELECT A DAY
Number of Records: 311,657;   Date Range: 7/1/96 - 8/10/14
 
SHARE

PRINT THIS DATA

[ ← Previous Day ]
WEATHER ALMANAC - OCTOBER 12, 2013
[ Next Day → ]
[ °C ]   °F
Weather ElementAverageHighLow
Temperature45.4 °F64.4 °F (2:50 pm)33 °F (2:00 am)
Dewpoint41.9 °F51.8 °F (1:50 pm)32 °F (1:50 am)
Humidity87.9 %100 % (12:50 am)61 % (5:00 pm)
Barometer30.03 in30.17 in (2:00 am)29.95 in (11:20 am)
Wind Speed7.5 mph16.1 mph (4:50 pm)
Weather ElementAverage
Visibility6.3 mi
Wind DirectionESE (129.1 °)

Weather ElementTotal
Precipitation---
Heating Degree Days16.3 (Base 65)
Averaged from 55 records on October 12, 2013
WEATHER CONDITIONS BREAKOUT
WIND DIRECTION BREAKOUT
WEATHER BY HOUR - OCTOBER 12, 2013
[ °C ]   °F
Local TimeTemperatureDewpointHumidityBarometerVisibilityWind DirectionWind SpeedGust SpeedPrecipitationEventsConditions
12:50 AM35.6 °F35.6 °F100 %30.09 in3.7 miVariable2.3 mphMist
1:20 AM35.6 °F33.8 °F93 %30.09 in0.5 miVariable1.2 mphFogFog
1:50 AM33.8 °F32.0 °F93 %30.09 in0.6 miVariable2.3 mphFogLight Freezing Fog
2:00 AM33.0 °F33.0 °F97 %30.17 in1.0 mi°2.2 mph
2:20 AM35.6 °F35.6 °F100 %30.12 inVariable2.3 mphOvercast
2:50 AM35.6 °F35.6 °F100 %30.09 in3.1 miENE (60°)4.6 mphOvercast
3:20 AM35.6 °F35.6 °F100 %30.09 in3.7 miSW (220°)4.6 mphMostly Cloudy
3:50 AM35.6 °F35.6 °F100 %30.06 in3.7 miNE (40°)3.5 mphMostly Cloudy
4:20 AM35.6 °F35.6 °F100 %30.06 in3.1 miVariable2.3 mphScattered Clouds
4:50 AM33.8 °F33.8 °F100 %30.06 in3.7 miVariable1.2 mphMostly Cloudy
5:00 AM35.0 °F34.0 °F96 %30.14 in4.0 mi°2.2 mphScattered Clouds
5:20 AM35.6 °F35.6 °F100 %30.06 in5.0 miVariable2.3 mphMostly Cloudy
5:50 AM37.4 °F37.4 °F100 %30.04 in5.0 miENE (70°)4.6 mphMostly Cloudy
6:20 AM39.2 °F39.2 °F100 %30.04 in6.2 miEast (100°)4.6 mphMostly Cloudy
6:50 AM39.2 °F39.2 °F100 %30.01 in6.2 miEast (90°)8.1 mphMostly Cloudy
7:20 AM41.0 °F39.2 °F93 %30.01 in6.2 miEast (80°)9.2 mphMostly Cloudy
7:50 AM41.0 °F39.2 °F93 %30.01 in6.2 miEast (80°)8.1 mphMostly Cloudy
8:00 AM41.0 °F40.0 °F94 %30.06 in6.0 miEast (80°)8.9 mphMostly Cloudy
8:20 AM41.0 °F41.0 °F100 %30.01 in4.3 miENE (70°)12.7 mphMostly Cloudy
8:50 AM42.8 °F41.0 °F93 %30.01 in3.7 miENE (60°)10.4 mphMostly Cloudy
9:20 AM44.6 °F42.8 °F93 %30.01 in3.7 miEast (80°)9.2 mphMostly Cloudy
9:50 AM44.6 °F42.8 °F93 %29.98 in5.6 miENE (60°)12.7 mphMostly Cloudy
10:20 AM44.6 °F42.8 °F93 %29.98 in6.2 miENE (70°)10.4 mphMostly Cloudy
10:50 AM44.6 °F42.8 °F93 %29.98 in6.2 miNE (50°)9.2 mphMostly Cloudy
11:00 AM45.0 °F43.0 °F92 %30.00 in19.0 miNE (50°)8.9 mphScattered Clouds
11:20 AM46.4 °F44.6 °F93 %29.95 in6.2 miENE (70°)11.5 mphMostly Cloudy
11:50 AM50.0 °F44.6 °F82 %29.98 in6.2 miNE (40°)3.5 mphMostly Cloudy
12:20 PM51.8 °F46.4 °F82 %29.98 in6.2 miEast (80°)8.1 mphMostly Cloudy
12:50 PM53.6 °F46.4 °F77 %29.95 in6.2 miEast (90°)4.6 mphMostly Cloudy
1:20 PM57.2 °F50.0 °F77 %29.95 in6.2 miEast (80°)9.2 mphMostly Cloudy
1:50 PM60.8 °F51.8 °F72 %29.95 in6.2 miEast (90°)9.2 mphMostly Cloudy
2:00 PM61.0 °F51.0 °F62 %29.95 in25.0 miEast (90°)8.9 mphScattered Clouds
2:20 PM62.6 °F51.8 °F68 %29.95 in6.2 miEast (90°)9.2 mphScattered Clouds
2:50 PM64.4 °F51.8 °F64 %29.95 in6.2 miEast (90°)9.2 mphScattered Clouds
3:20 PM62.6 °F51.8 °F68 %29.95 in6.2 miESE (110°)8.1 mphMostly Cloudy
3:50 PM62.6 °F51.8 °F68 %29.95 in6.2 miWSW (250°)12.7 mphMostly Cloudy
4:20 PM59.0 °F50.0 °F72 %29.98 in6.2 miWest (270°)13.8 mphScattered Clouds
4:50 PM55.4 °F46.4 °F72 %30.01 in6.2 miWest (280°)16.1 mphScattered Clouds
5:00 PM56.0 °F46.0 °F61 %30.01 in25.0 miWest (280°)15.7 mphScattered Clouds
5:20 PM55.4 °F46.4 °F72 %30.01 in6.2 miWest (280°)13.8 mphScattered Clouds
5:50 PM53.6 °F46.4 °F77 %30.01 in6.2 miWest (270°)13.8 mphScattered Clouds
6:20 PM50.0 °F44.6 °F82 %30.04 in6.2 miWest (270°)13.8 mphPartly Cloudy
6:50 PM48.2 °F42.8 °F82 %30.04 in6.2 miWest (260°)12.7 mphPartly Cloudy
7:20 PM48.2 °F42.8 °F82 %30.04 inWSW (250°)10.4 mphClear
7:50 PM46.4 °F42.8 °F87 %30.04 in6.2 miWSW (250°)9.2 mphPartly Cloudy
8:00 PM46.0 °F42.0 °F81 %30.08 in12.0 miWSW (250°)8.9 mphScattered Clouds
8:20 PM44.6 °F42.8 °F93 %30.06 in6.2 miWSW (240°)8.1 mphScattered Clouds
8:50 PM44.6 °F41.0 °F87 %30.04 in6.2 miWSW (240°)8.1 mphScattered Clouds
9:20 PM42.8 °F41.0 °F93 %30.06 in6.2 miSW (230°)6.9 mphScattered Clouds
9:50 PM42.8 °F39.2 °F87 %30.06 in6.2 miSW (230°)4.6 mphScattered Clouds
10:20 PM41.0 °F39.2 °F93 %30.06 in5.0 miSouth (190°)2.3 mphScattered Clouds
10:50 PM41.0 °F39.2 °F93 %30.06 in5.0 miWSW (240°)3.5 mphMostly Cloudy
11:00 PM41.0 °F40.0 °F92 %30.11 in5.0 miWSW (240°)4.5 mphMostly Cloudy
11:20 PM41.0 °F41.0 °F100 %30.06 in5.0 miSW (230°)3.5 mphMostly Cloudy
11:50 PM41.0 °F41.0 °F100 %30.06 in5.6 miVariable2.3 mphOvercast
Hourly data recorded from LOWL, located miles away from Linz, Austria







STORIES FROM OUR PARTNERS